EUTELSAT 53A

Last updated on Sat Aug 15 2026 00:02:59 GMT+0000 (Coordinated Universal Time)

1 40277U 14064A 26226.22203192 .00000082 00000+0 00000+0 0 9992 2 40277 0.0167 98.1699 0001329 97.2654 260.1192 1.00271990 42158
UTC large
Height (km)
Speed (km/s)
/
Latitude / Longitude
Inclination (degrees)
Orbital Period (minutes)
Azimuth
Elevation
Range (km)
Doppler Factor

Next 0 passes for location: London (51.5072 / 0.1276)

No passes found over London.
EUTELSAT 53A